Location: Bacharowice
(49.9333°N, 19.5833°E)
Time: 07:38:48
(UTC+00:00)

Cosmos 1048 Rocket - Pass Details

Date: 11 May 2021
Orbit: 743 x 791 km, 74.0° (Epoch: 21 June)

Event Time Altitude Azimuth Distance (km) Brightness Sun altitude
Rises 22:16:30 0° 335° (NNW) 3,287 8.5 -21.8°
Reaches altitude 10° 22:18:55 10° 335° (NNW) 2,349 7.5 -21.8°
Maximum altitude 22:24:16 87° 249° (WSW) 783 3.9 -21.9°
Enters shadow 22:25:39 51° 162° (SSE) 971 4.1 -21.9°
